User: anonymous   Login
Location: Unspecified
(0.0000°N, 0.0000°E)
Time: 08:53:47
(UTC+00:00)
Language:

DX 1 - Orbit

View from above orbital plane
View from above orbital plane
View from above satellite
View from above satellite

Ground track
Ground track

The orbit data is extracted from the following two-line orbital elements,

1 40071U 14037C   18200.84556213  .00000087  00000-0  18611-4 0  9998
2 40071  98.3807 333.6717 0007730 209.9216 150.1559 14.81172930217838
Epoch (UTC): 19 July 2018 20:17:36
Eccentricity: 0.0007730
inclination: 98.3807°
perigee height: 620 km
apogee height: 631 km
right ascension of ascending node: 333.6717°
argument of perigee: 209.9216°
revolutions per day: 14.81172930
mean anomaly at epoch: 150.1559°
orbit number at epoch: 21783

The dashed part of the orbit path shows where the satellite is in the earth's shadow,  

DLR